Wind_Speed
34 34 34 34 34 34 35 35 35 35 35 35 35 36 36 37 37 38 39 40 42 43 44 45 47 48 49 51 52 54 55 56 56 55 57 59 61 62 64 66 68 68 69
33 33 33 33 33 33 34 34 34 34 35 35 35 35 36 36 37 38 39 41 42 44 45 46 48 49 50 52 53 55 56 57 58 58 59 62 64 66 68 69 69 70 71
32 32 32 32 32 32 32 32 33 33 33 34 34 35 36 37 38 39 40 42 43 44 46 47 49 50 52 53 54 56 57 59 61 61 63 65 67 69 70 70 71 71 72
31 31 31 31 31 31 31 32 32 33 33 33 34 35 36 37 38 40 41 43 44 45 47 49 50 52 53 54 56 57 59 61 63 64 66 68 69 70 71 71 71 71 70
30 30 30 30 30 30 31 31 32 32 33 34 35 36 37 38 39 40 42 43 45 46 48 49 51 52 54 55 57 59 61 63 65 67 68 70 70 71 71 71 70 69 68
29 29 29 30 30 30 31 31 31 32 33 34 35 36 37 38 40 41 43 44 45 47 48 50 51 53 55 57 59 61 63 65 67 69 70 71 70 71 71 71 70 68 67
29 29 29 29 30 30 31 31 32 33 34 35 36 37 38 39 40 42 43 44 46 47 49 50 52 55 56 58 60 62 64 67 69 71 71 71 71 71 71 70 69 68 66
28 28 29 29 30 30 31 32 33 33 34 34 36 37 38 39 41 42 43 45 47 48 49 51 54 56 57 59 61 64 66 68 70 70 70 71 71 71 70 69 67 64 62
28 28 29 29 30 30 31 32 33 33 34 35 36 37 38 40 41 43 44 46 47 49 51 53 55 57 59 61 63 65 66 67 68 69 70 71 70 69 69 66 63 61 58
28 29 29 29 30 31 31 32 32 33 34 35 36 37 39 40 41 43 45 46 48 50 52 54 56 59 61 63 65 66 67 67 68 69 69 69 67 65 63 61 59 57 54
29 29 30 30 31 31 31 32 33 33 34 35 36 38 39 40 42 44 46 47 49 51 53 56 58 61 63 64 65 67 68 68 68 68 67 65 62 60 58 56 55 53 50
29 30 30 30 30 30 31 32 33 34 34 35 36 38 39 41 42 44 46 48 50 53 55 58 60 62 63 64 66 67 67 66 66 65 63 60 57 55 53 52 50 48 44
29 29 30 30 30 31 31 32 33 33 34 35 36 38 39 41 43 45 48 50 52 55 57 59 61 62 63 65 65 65 65 65 64 61 58 55 52 50 48 47 45 41 37
28 28 29 30 30 30 31 32 32 33 34 35 37 38 40 41 44 46 49 51 54 56 58 60 61 62 63 64 64 63 63 62 59 56 53 50 48 46 44 42 39 35 31
28 28 29 29 30 31 31 32 32 33 34 36 37 39 41 43 45 48 50 53 55 57 59 60 61 61 63 63 62 61 59 58 55 52 49 46 44 42 40 37 34 30 28
28 29 29 30 30 31 31 32 33 34 35 37 38 40 42 44 46 49 52 54 56 58 59 60 60 61 61 61 59 58 56 54 52 49 45 43 41 39 36 33 30 27 25
28 29 29 30 30 31 31 32 33 34 36 37 39 41 43 45 48 50 52 55 57 58 59 59 60 61 60 59 57 55 53 51 49 45 42 39 37 35 32 30 27 24 22
28 29 29 29 30 31 31 32 34 35 36 38 39 41 43 46 49 51 53 56 58 58 59 59 60 59 58 57 55 53 51 48 45 41 39 36 34 32 29 27 24 22 20
28 28 29 29 30 31 32 33 34 35 37 38 40 42 45 47 49 52 54 57 58 58 58 59 59 58 56 55 53 51 48 44 41 38 36 33 31 29 26 23 21 20 19
28 29 29 30 31 31 32 33 34 36 37 39 41 43 45 48 51 53 55 57 57 57 58 58 57 56 55 53 51 48 44 41 38 36 33 31 28 26 23 21 20 18 17
28 29 29 30 30 31 32 33 35 36 38 40 42 44 46 49 52 54 56 57 57 57 57 57 56 55 53 51 48 44 40 38 36 33 30 27 25 23 21 19 18 17 16
28 28 29 30 31 32 33 34 35 37 39 41 43 45 47 50 52 54 56 57 57 56 56 56 55 52 50 47 44 40 38 35 33 29 27 25 23 21 19 18 17 16 16
28 29 29 30 31 33 34 35 37 38 40 42 44 46 48 51 53 55 57 56 56 55 55 54 52 50 47 44 40 37 35 32 29 26 24 22 21 20 18 17 16 16 15
28 29 30 31 32 33 35 36 37 39 41 43 45 47 50 52 54 56 57 56 55 54 53 52 50 48 45 41 38 35 32 29 27 24 23 21 20 19 18 17 16 15 15
29 30 31 32 33 34 35 37 39 40 42 44 46 48 51 53 55 56 56 55 54 52 51 50 48 46 42 38 35 32 29 27 25 23 22 21 19 18 17 16 16 15 14
30 31 32 33 34 35 36 38 40 41 43 45 47 49 52 54 55 56 56 54 52 51 50 48 46 43 39 36 33 30 28 26 24 23 21 20 18 18 17 17 15 14 13
Wind_Direction
268 270 272 273 275 278 280 283 285 286 288 290 291 293 294 295 296 297 298 298 300 301 302 303 303 304 304 305 305 306 306 306 307 306 305 305 304 304 304 303 302 301 300
267 269 271 273 275 278 280 283 284 286 288 290 292 293 294 295 296 298 298 299 301 301 302 303 303 304 305 305 305 306 306 306 307 307 306 305 305 304 304 303 303 302 301
266 268 270 273 275 278 280 282 285 287 288 290 292 294 295 296 297 298 299 300 301 301 302 303 304 305 305 305 306 306 306 306 307 306 306 306 305 305 305 304 303 303 302
266 268 271 273 276 279 281 283 285 287 288 290 292 295 296 297 298 299 300 301 302 302 303 304 304 305 305 306 306 307 307 307 307 307 307 306 306 306 305 305 305 304 303
266 268 271 274 277 280 282 284 286 287 289 291 293 295 297 298 299 300 301 302 303 303 304 304 305 305 306 306 307 307 307 307 307 307 307 307 307 307 306 306 306 305 304
266 269 272 275 278 280 283 285 286 288 290 292 294 296 298 299 300 301 302 303 304 304 304 305 306 307 307 307 307 308 308 308 308 308 308 309 308 308 307 307 307 306 305
267 270 273 276 279 281 283 285 287 289 291 294 296 297 299 300 301 302 303 304 305 305 306 306 307 308 308 308 308 309 309 309 309 309 309 309 309 308 308 308 307 307 307
268 271 275 278 281 283 284 286 288 290 293 295 296 298 299 300 302 303 304 306 306 306 307 308 308 309 309 309 309 309 310 310 309 310 310 309 309 309 309 309 308 308 308
269 272 276 279 281 283 285 287 289 291 293 296 297 298 300 301 303 305 306 307 307 307 308 309 310 310 310 309 310 310 311 310 310 310 310 310 310 310 309 309 310 310 310
270 273 276 279 281 284 286 288 289 291 294 296 298 299 301 303 305 306 307 308 309 309 310 311 311 311 311 311 311 311 311 311 311 311 311 311 311 311 311 311 311 311 311
270 274 277 279 282 284 286 288 290 293 295 297 298 301 302 304 306 307 309 310 310 310 311 311 311 312 312 312 312 312 312 312 312 312 312 312 312 312 312 312 313 313 313
270 273 276 279 282 284 286 289 291 293 295 297 300 302 304 305 307 309 310 311 312 312 313 313 313 313 313 313 313 313 313 313 314 314 314 313 313 313 314 315 315 315 314
271 274 277 280 282 284 287 290 292 294 296 298 301 303 305 307 309 311 312 312 313 313 314 314 314 314 314 314 314 314 314 314 315 315 315 315 315 315 316 317 318 318 317
272 274 277 280 282 285 288 290 293 295 297 300 302 304 307 308 310 312 313 314 314 315 315 315 315 315 315 315 315 315 315 316 317 316 316 316 316 317 318 319 320 320 320
272 275 278 280 283 286 288 291 293 295 298 301 303 305 308 310 311 313 315 316 316 316 316 317 317 317 317 317 317 317 317 318 318 318 318 317 317 318 319 320 321 322 321
272 275 278 281 284 287 289 291 294 297 299 302 304 307 309 311 313 315 317 318 318 318 318 318 318 318 318 318 318 318 319 319 319 319 319 319 319 320 320 321 322 323 323
272 276 279 282 285 288 290 292 295 298 300 303 306 308 311 313 315 317 318 319 319 319 319 319 319 319 319 319 319 319 320 319 320 319 319 320 321 321 322 322 322 323 324
273 276 280 283 286 288 291 294 297 299 302 304 307 309 312 314 316 318 319 320 320 320 320 320 320 320 320 320 320 320 320 320 320 320 320 321 322 322 322 322 323 323 324
273 277 281 284 287 290 293 296 298 301 303 306 309 311 313 315 317 319 320 321 321 321 321 321 321 321 321 321 321 321 320 320 320 321 321 322 322 322 322 322 323 324 325
276 279 282 285 288 291 294 297 300 302 305 307 310 312 314 317 319 320 321 322 322 322 322 322 322 322 322 321 321 321 321 320 321 321 321 322 322 322 322 321 322 323 325
277 280 283 286 289 292 295 298 301 303 306 309 311 313 315 317 319 320 321 322 322 322 322 323 323 322 322 322 322 322 322 322 322 322 322 322 323 322 322 321 322 322 324
278 281 284 287 291 294 296 299 302 305 307 310 312 314 316 318 320 321 322 322 322 322 323 323 323 323 323 323 323 323 323 322 323 323 323 323 323 323 321 321 321 322 324
279 282 285 288 291 294 297 300 303 306 308 311 313 315 317 319 320 322 322 322 322 322 323 323 324 324 324 324 324 323 323 323 324 324 323 323 323 323 322 321 321 322 323
280 283 285 289 292 295 298 301 304 307 309 311 313 316 318 319 321 322 323 322 322 322 323 323 323 323 324 323 323 323 323 323 323 322 322 322 322 322 322 322 321 321 322
281 284 287 290 293 296 299 302 305 307 309 312 314 316 318 320 321 323 323 322 322 322 322 322 323 323 323 323 322 322 322 322 322 321 321 320 320 320 320 320 320 320 319
282 285 288 291 294 297 300 303 305 308 310 313 315 317 319 321 322 323 323 322 322 322 322 322 322 323 322 321 321 321 321 321 321 320 319 318 318 318 317 317 317 316 317
Height
5725 5725 5725 5724 5724 5723 5722 5720 5719 5717 5715 5713 5711 5708 5706 5703 5700 5697 5693 5689 5685 5681 5677 5672 5667 5662 5656 5650 5644 5638 5632 5626 5622 5617 5609 5602 5594 5587 5579 5571 5563 5556 5548
5717 5717 5716 5716 5716 5715 5714 5712 5711 5709 5707 5705 5703 5700 5698 5695 5692 5688 5685 5681 5677 5672 5667 5662 5657 5651 5646 5639 5633 5627 5620 5614 5608 5603 5596 5587 5579 5570 5562 5554 5545 5537 5529
5708 5708 5708 5708 5708 5707 5706 5705 5703 5701 5700 5697 5695 5693 5690 5687 5683 5680 5676 5672 5668 5663 5658 5652 5646 5641 5634 5628 5621 5614 5608 5600 5593 5587 5581 5572 5563 5553 5545 5536 5527 5518 5509
5700 5700 5701 5700 5700 5699 5698 5697 5695 5694 5692 5690 5687 5685 5682 5678 5675 5671 5667 5663 5658 5653 5648 5642 5636 5629 5623 5616 5609 5602 5595 5587 5579 5572 5564 5556 5546 5536 5526 5518 5510 5500 5491
5692 5693 5693 5693 5692 5691 5690 5689 5688 5686 5684 5682 5679 5676 5673 5670 5666 5662 5658 5653 5649 5643 5637 5631 5625 5618 5611 5604 5597 5589 5581 5573 5564 5556 5547 5538 5529 5518 5509 5499 5491 5483 5474
5685 5685 5685 5685 5685 5684 5683 5681 5680 5678 5676 5674 5671 5668 5665 5661 5657 5653 5649 5644 5639 5633 5627 5620 5614 5607 5600 5592 5584 5575 5567 5558 5549 5540 5531 5521 5511 5501 5491 5481 5472 5464 5458
5677 5678 5678 5677 5677 5676 5675 5673 5672 5670 5668 5665 5662 5659 5656 5652 5648 5644 5639 5634 5629 5622 5616 5610 5603 5595 5587 5579 5571 5562 5552 5542 5532 5523 5513 5503 5493 5484 5474 5465 5455 5446 5438
5670 5670 5670 5669 5669 5668 5667 5665 5664 5662 5659 5657 5654 5651 5647 5643 5639 5635 5630 5625 5618 5612 5605 5599 5591 5583 5575 5567 5559 5549 5539 5528 5517 5507 5497 5487 5476 5466 5456 5447 5438 5430 5422
5662 5662 5662 5662 5661 5660 5659 5657 5655 5653 5651 5648 5645 5642 5638 5634 5630 5625 5620 5614 5608 5601 5594 5587 5579 5571 5563 5554 5545 5536 5526 5514 5502 5492 5481 5470 5459 5449 5439 5430 5422 5414 5407
5655 5655 5654 5654 5653 5652 5651 5649 5647 5645 5643 5640 5637 5633 5630 5625 5621 5616 5610 5605 5598 5591 5584 5575 5567 5558 5549 5539 5530 5520 5510 5500 5489 5478 5467 5456 5445 5434 5425 5416 5407 5400 5392
5647 5647 5647 5646 5645 5644 5643 5641 5639 5637 5634 5631 5628 5625 5621 5616 5611 5606 5600 5594 5587 5580 5572 5563 5554 5545 5535 5525 5515 5505 5494 5484 5474 5463 5452 5441 5431 5422 5412 5404 5395 5387 5380
5639 5639 5639 5638 5637 5636 5635 5633 5631 5628 5626 5622 5619 5615 5611 5607 5602 5596 5590 5583 5575 5568 5560 5551 5541 5531 5521 5511 5500 5489 5478 5468 5458 5448 5437 5427 5418 5410 5401 5393 5384 5376 5369
5631 5631 5631 5630 5629 5628 5626 5624 5622 5620 5617 5614 5610 5606 5602 5597 5592 5586 5579 5572 5564 5556 5547 5538 5528 5518 5507 5496 5485 5474 5464 5454 5444 5434 5424 5415 5407 5399 5391 5383 5375 5368 5361
5623 5623 5623 5622 5621 5620 5618 5616 5614 5611 5608 5605 5601 5597 5593 5587 5582 5576 5569 5561 5553 5544 5535 5525 5515 5504 5493 5482 5471 5461 5450 5440 5430 5421 5412 5404 5396 5389 5382 5375 5368 5361 5356
5615 5615 5615 5614 5613 5611 5610 5608 5605 5603 5600 5596 5592 5588 5583 5578 5572 5565 5558 5550 5541 5532 5522 5512 5502 5491 5480 5469 5458 5448 5438 5428 5419 5410 5402 5394 5387 5380 5374 5368 5362 5356 5351
5607 5607 5607 5606 5605 5603 5601 5599 5596 5594 5591 5587 5583 5579 5573 5568 5561 5554 5546 5538 5529 5519 5510 5500 5489 5478 5467 5457 5446 5436 5427 5418 5409 5400 5393 5386 5379 5373 5367 5362 5357 5352 5347
5599 5599 5598 5597 5596 5595 5593 5591 5588 5585 5582 5578 5573 5569 5563 5557 5550 5543 5535 5526 5517 5507 5497 5487 5476 5466 5455 5445 5435 5425 5417 5408 5399 5392 5385 5378 5372 5366 5361 5356 5352 5348 5344
5591 5591 5590 5589 5588 5586 5584 5582 5579 5576 5573 5568 5564 5559 5553 5547 5540 5532 5524 5515 5505 5495 5485 5475 5465 5454 5444 5434 5424 5415 5407 5398 5391 5384 5377 5371 5366 5361 5356 5351 5348 5344 5341
5583 5583 5582 5581 5579 5578 5576 5573 5570 5567 5563 5559 5554 5549 5543 5536 5529 5521 5513 5504 5494 5484 5474 5464 5453 5443 5433 5423 5414 5405 5397 5390 5383 5376 5370 5365 5360 5355 5351 5347 5344 5341 5338
5575 5575 5574 5573 5571 5569 5567 5564 5561 5558 5554 5550 5545 5539 5533 5526 5519 5510 5502 5492 5483 5473 5463 5453 5443 5432 5422 5413 5404 5396 5388 5382 5375 5369 5364 5359 5354 5350 5347 5343 5340 5337 5335
5567 5566 5565 5564 5562 5560 5558 5555 5552 5549 5545 5540 5535 5529 5523 5516 5508 5500 5491 5482 5472 5462 5453 5442 5432 5422 5413 5404 5395 5387 5380 5374 5368 5363 5358 5354 5350 5346 5343 5340 5337 5335 5332
5558 5558 5557 5555 5554 5552 5549 5546 5543 5539 5535 5530 5525 5519 5512 5505 5497 5489 5480 5471 5461 5452 5442 5432 5422 5413 5404 5395 5387 5380 5374 5368 5362 5357 5353 5349 5345 5342 5339 5337 5334 5332 5330
5550 5549 5548 5547 5545 5543 5540 5537 5533 5530 5525 5520 5515 5509 5502 5494 5486 5478 5469 5459 5450 5441 5431 5422 5413 5404 5395 5387 5380 5374 5368 5362 5357 5353 5349 5345 5342 5339 5336 5334 5331 5329 5327
5541 5540 5539 5538 5536 5533 5531 5527 5524 5520 5515 5510 5504 5498 5491 5484 5475 5467 5458 5448 5439 5430 5421 5412 5404 5395 5387 5380 5374 5368 5362 5357 5353 5348 5345 5342 5338 5336 5333 5331 5329 5327 5325
5532 5531 5530 5529 5526 5524 5521 5518 5514 5510 5505 5500 5494 5487 5480 5472 5464 5456 5446 5437 5428 5420 5411 5403 5394 5387 5380 5373 5367 5362 5357 5352 5348 5344 5341 5338 5335 5333 5330 5328 5326 5324 5322
5524 5522 5521 5519 5517 5514 5511 5508 5504 5500 5495 5489 5483 5476 5469 5461 5453 5444 5435 5426 5417 5409 5401 5393 5385 5379 5372 5366 5361 5356 5352 5347 5344 5340 5337 5335 5332 5329 5327 5325 5323 5321 5320